Time,TemperatureF,DewpointF,PressureIn,WindDirection,WindDirectionDegrees,WindSpeedMPH,WindSpeedGustMPH,Humidity,HourlyPrecipIn,Conditions,Clouds,dailyrainin,SoftwareType,DateUTC
2013-03-29 00:00:00,65.8,56.9,30.09,South,176,4.0,10.0,73,0.00,,,0.00,VWS V14.01,2013-03-29 05:00:00,
2013-03-29 00:05:00,65.7,56.8,30.09,East,99,5.0,14.0,73,0.00,,,0.00,VWS V14.01,2013-03-29 05:05:00,
2013-03-29 00:10:00,65.7,57.2,30.09,South,182,10.0,13.0,74,0.00,,,0.00,VWS V14.01,2013-03-29 05:10:00,
2013-03-29 00:15:00,65.6,57.1,30.09,SE,146,8.0,9.0,74,0.00,,,0.00,VWS V14.01,2013-03-29 05:15:00,
2013-03-29 00:20:00,65.5,57.0,30.09,SE,132,11.0,12.0,74,0.00,,,0.00,VWS V14.01,2013-03-29 05:20:00,
2013-03-29 00:25:00,65.5,57.0,30.09,East,85,8.0,10.0,74,0.00,,,0.00,VWS V14.01,2013-03-29 05:25:00,
2013-03-29 00:30:00,65.3,56.8,30.09,SSW,208,2.0,9.0,74,0.00,,,0.00,VWS V14.01,2013-03-29 05:30:00,
2013-03-29 00:35:00,65.2,57.1,30.09,SE,132,11.0,12.0,75,0.00,,,0.00,VWS V14.01,2013-03-29 05:35:00,
2013-03-29 00:40:00,65.1,57.0,30.09,ESE,121,5.0,10.0,75,0.00,,,0.00,VWS V14.01,2013-03-29 05:40:00,
2013-03-29 00:45:00,65.0,56.9,30.09,SSE,148,1.0,9.0,75,0.00,,,0.00,VWS V14.01,2013-03-29 05:45:00,
2013-03-29 00:50:00,64.9,56.8,30.10,ESE,118,5.0,6.0,75,0.00,,,0.00,VWS V14.01,2013-03-29 05:50:00,
2013-03-29 00:55:00,64.8,57.1,30.10,SE,146,4.0,8.0,76,0.00,,,0.00,VWS V14.01,2013-03-29 05:55:00,
2013-03-29 01:00:00,64.6,56.9,30.10,SE,137,8.0,10.0,76,0.00,,,0.00,VWS V14.01,2013-03-29 06:00:00,
2013-03-29 01:05:00,64.5,56.8,30.10,SE,144,4.0,5.0,76,0.00,,,0.00,VWS V14.01,2013-03-29 06:05:00,
2013-03-29 01:10:00,64.3,56.6,30.10,South,188,7.0,8.0,76,0.00,,,0.00,VWS V14.01,2013-03-29 06:10:00,
2013-03-29 01:15:00,64.2,56.8,30.10,East,96,5.0,7.0,77,0.00,,,0.00,VWS V14.01,2013-03-29 06:15:00,
2013-03-29 01:20:00,64.2,56.8,30.10,SE,140,0.0,5.0,77,0.00,,,0.00,VWS V14.01,2013-03-29 06:20:00,
2013-03-29 01:25:00,64.1,56.8,30.10,SE,142,4.0,8.0,77,0.00,,,0.00,VWS V14.01,2013-03-29 06:25:00,
2013-03-29 01:30:00,64.1,56.8,30.10,SSE,162,4.0,8.0,77,0.00,,,0.00,VWS V14.01,2013-03-29 06:30:00,
2013-03-29 01:35:00,64.2,56.8,30.10,ESE,123,7.0,7.0,77,0.00,,,0.00,VWS V14.01,2013-03-29 06:35:00,
2013-03-29 01:40:00,64.2,57.2,30.09,ESE,111,3.0,9.0,78,0.00,,,0.00,VWS V14.01,2013-03-29 06:40:00,
2013-03-29 01:45:00,64.1,57.1,30.10,SE,140,5.0,11.0,78,0.00,,,0.00,VWS V14.01,2013-03-29 06:45:00,
2013-03-29 01:50:00,64.1,57.1,30.09,South,182,7.0,7.0,78,0.00,,,0.00,VWS V14.01,2013-03-29 06:50:00,
2013-03-29 01:55:00,64.1,57.1,30.09,SE,139,15.0,15.0,78,0.00,,,0.00,VWS V14.01,2013-03-29 06:55:00,
2013-03-29 02:00:00,64.0,57.0,30.09,SSE,153,6.0,10.0,78,0.00,,,0.00,VWS V14.01,2013-03-29 07:00:00,
2013-03-29 02:05:00,63.9,56.9,30.09,South,173,4.0,10.0,78,0.00,,,0.00,VWS V14.01,2013-03-29 07:05:00,
2013-03-29 02:10:00,63.8,56.8,30.09,ESE,122,9.0,9.0,78,0.00,,,0.00,VWS V14.01,2013-03-29 07:10:00,
2013-03-29 02:15:00,63.7,56.7,30.09,ESE,123,9.0,11.0,78,0.00,,,0.00,VWS V14.01,2013-03-29 07:15:00,
2013-03-29 02:20:00,63.7,57.1,30.09,South,169,6.0,11.0,79,0.00,,,0.00,VWS V14.01,2013-03-29 07:20:00,
2013-03-29 02:25:00,63.6,57.0,30.09,South,173,3.0,10.0,79,0.00,,,0.00,VWS V14.01,2013-03-29 07:25:00,
2013-03-29 02:30:00,63.6,57.0,30.09,SE,142,7.0,10.0,79,0.00,,,0.00,VWS V14.01,2013-03-29 07:30:00,
2013-03-29 02:35:00,63.5,56.9,30.09,SE,142,3.0,8.0,79,0.00,,,0.00,VWS V14.01,2013-03-29 07:35:00,
2013-03-29 02:40:00,63.4,56.8,30.09,SE,130,9.0,11.0,79,0.00,,,0.00,VWS V14.01,2013-03-29 07:40:00,
2013-03-29 02:45:00,63.3,56.7,30.09,ESE,109,10.0,12.0,79,0.00,,,0.00,VWS V14.01,2013-03-29 07:45:00,
2013-03-29 02:50:00,63.2,56.6,30.09,ESE,106,3.0,7.0,79,0.00,,,0.00,VWS V14.01,2013-03-29 07:50:00,
2013-03-29 02:55:00,63.1,56.5,30.09,SSE,150,8.0,13.0,79,0.00,,,0.00,VWS V14.01,2013-03-29 07:55:00,
2013-03-29 03:00:00,63.1,56.8,30.09,SSE,158,7.0,8.0,80,0.00,,,0.00,VWS V14.01,2013-03-29 08:00:00,
2013-03-29 03:05:00,63.0,56.7,30.10,SE,140,2.0,6.0,80,0.00,,,0.00,VWS V14.01,2013-03-29 08:05:00,
2013-03-29 03:10:00,63.0,56.7,30.10,ESE,120,10.0,10.0,80,0.00,,,0.00,VWS V14.01,2013-03-29 08:10:00,
2013-03-29 03:15:00,62.9,56.6,30.10,SSE,147,1.0,6.0,80,0.00,,,0.00,VWS V14.01,2013-03-29 08:15:00,
2013-03-29 03:20:00,62.9,56.6,30.10,South,178,5.0,9.0,80,0.00,,,0.00,VWS V14.01,2013-03-29 08:20:00,
2013-03-29 03:25:00,62.9,56.6,30.10,South,180,11.0,15.0,80,0.00,,,0.00,VWS V14.01,2013-03-29 08:25:00,
2013-03-29 03:30:00,62.8,56.5,30.09,SSE,168,4.0,11.0,80,0.00,,,0.00,VWS V14.01,2013-03-29 08:30:00,
2013-03-29 03:35:00,62.8,56.5,30.09,SE,136,4.0,12.0,80,0.00,,,0.00,VWS V14.01,2013-03-29 08:35:00,
2013-03-29 03:40:00,62.7,56.5,30.09,East,80,7.0,14.0,80,0.00,,,0.00,VWS V14.01,2013-03-29 08:40:00,
2013-03-29 03:45:00,62.7,56.5,30.09,SE,141,1.0,8.0,80,0.00,,,0.00,VWS V14.01,2013-03-29 08:45:00,
2013-03-29 03:50:00,62.6,56.3,30.09,SSE,160,7.0,7.0,80,0.00,,,0.00,VWS V14.01,2013-03-29 08:50:00,
2013-03-29 03:55:00,62.5,56.2,30.09,South,175,6.0,12.0,80,0.00,,,0.00,VWS V14.01,2013-03-29 08:55:00,
2013-03-29 04:00:00,62.5,56.2,30.09,South,172,8.0,13.0,80,0.00,,,0.00,VWS V14.01,2013-03-29 09:00:00,
2013-03-29 04:05:00,62.5,56.2,30.09,South,175,5.0,10.0,80,0.00,,,0.00,VWS V14.01,2013-03-29 09:05:00,
2013-03-29 04:10:00,62.4,56.2,30.09,SSE,149,7.0,9.0,80,0.00,,,0.00,VWS V14.01,2013-03-29 09:10:00,
2013-03-29 04:15:00,62.3,56.1,30.09,SE,140,7.0,7.0,80,0.00,,,0.00,VWS V14.01,2013-03-29 09:15:00,
2013-03-29 04:20:00,62.3,56.4,30.09,SSE,156,8.0,9.0,81,0.00,,,0.00,VWS V14.01,2013-03-29 09:20:00,
2013-03-29 04:25:00,62.3,56.4,30.09,SE,138,4.0,8.0,81,0.00,,,0.00,VWS V14.01,2013-03-29 09:25:00,
2013-03-29 04:30:00,62.2,56.3,30.09,SSE,157,6.0,10.0,81,0.00,,,0.00,VWS V14.01,2013-03-29 09:30:00,
2013-03-29 04:35:00,62.1,56.2,30.09,ESE,121,8.0,8.0,81,0.00,,,0.00,VWS V14.01,2013-03-29 09:35:00,
2013-03-29 04:40:00,62.1,56.2,30.09,SE,134,7.0,10.0,81,0.00,,,0.00,VWS V14.01,2013-03-29 09:40:00,
2013-03-29 04:45:00,62.0,56.1,30.08,East,97,7.0,8.0,81,0.00,,,0.00,VWS V14.01,2013-03-29 09:45:00,
2013-03-29 04:50:00,62.0,56.1,30.09,SE,131,4.0,4.0,81,0.00,,,0.00,VWS V14.01,2013-03-29 09:50:00,
2013-03-29 04:55:00,61.9,56.0,30.09,SE,140,5.0,8.0,81,0.00,,,0.00,VWS V14.01,2013-03-29 09:55:00,
2013-03-29 05:00:00,61.9,56.0,30.09,SSW,202,8.0,10.0,81,0.00,,,0.00,VWS V14.01,2013-03-29 10:00:00,
2013-03-29 05:05:00,61.8,56.2,30.09,SSE,157,1.0,9.0,82,0.00,,,0.00,VWS V14.01,2013-03-29 10:05:00,
2013-03-29 05:10:00,61.8,56.2,30.09,South,173,8.0,10.0,82,0.00,,,0.00,VWS V14.01,2013-03-29 10:10:00,
2013-03-29 05:15:00,61.8,56.2,30.09,South,172,7.0,10.0,82,0.00,,,0.00,VWS V14.01,2013-03-29 10:15:00,
2013-03-29 05:20:00,61.8,56.2,30.09,SE,142,10.0,13.0,82,0.00,,,0.00,VWS V14.01,2013-03-29 10:20:00,
2013-03-29 05:25:00,61.8,56.2,30.09,South,188,8.0,8.0,82,0.00,,,0.00,VWS V14.01,2013-03-29 10:25:00,
2013-03-29 05:30:00,61.7,56.2,30.09,SE,143,3.0,6.0,82,0.00,,,0.00,VWS V14.01,2013-03-29 10:30:00,
2013-03-29 05:35:00,61.7,56.2,30.09,SE,136,11.0,11.0,82,0.00,,,0.00,VWS V14.01,2013-03-29 10:35:00,
2013-03-29 05:40:00,61.7,56.2,30.09,SE,137,2.0,4.0,82,0.00,,,0.00,VWS V14.01,2013-03-29 10:40:00,
2013-03-29 05:45:00,61.6,56.1,30.09,South,169,6.0,10.0,82,0.00,,,0.00,VWS V14.01,2013-03-29 10:45:00,
2013-03-29 05:50:00,61.6,56.1,30.09,SE,137,2.0,8.0,82,0.00,,,0.00,VWS V14.01,2013-03-29 10:50:00,
2013-03-29 05:55:00,61.5,56.0,30.09,SSE,150,7.0,11.0,82,0.00,,,0.00,VWS V14.01,2013-03-29 10:55:00,
2013-03-29 06:00:00,61.5,56.0,30.09,South,169,6.0,7.0,82,0.00,,,0.00,VWS V14.01,2013-03-29 11:00:00,
2013-03-29 06:05:00,61.5,56.0,30.09,SE,140,9.0,14.0,82,0.00,,,0.00,VWS V14.01,2013-03-29 11:05:00,
2013-03-29 06:10:00,61.5,56.0,30.10,SE,144,6.0,8.0,82,0.00,,,0.00,VWS V14.01,2013-03-29 11:10:00,
2013-03-29 06:15:00,61.4,55.9,30.10,ESE,111,3.0,10.0,82,0.00,,,0.00,VWS V14.01,2013-03-29 11:15:00,
2013-03-29 06:20:00,61.4,55.9,30.10,ESE,115,4.0,11.0,82,0.00,,,0.00,VWS V14.01,2013-03-29 11:20:00,
2013-03-29 06:25:00,61.4,55.9,30.10,South,179,8.0,13.0,82,0.00,,,0.00,VWS V14.01,2013-03-29 11:25:00,
2013-03-29 06:30:00,61.3,55.8,30.10,SSE,161,4.0,6.0,82,0.00,,,0.00,VWS V14.01,2013-03-29 11:30:00,
2013-03-29 06:35:00,61.2,55.7,30.10,SE,144,9.0,12.0,82,0.00,,,0.00,VWS V14.01,2013-03-29 11:35:00,
2013-03-29 06:40:00,61.2,55.7,30.11,South,182,6.0,6.0,82,0.00,,,0.00,VWS V14.01,2013-03-29 11:40:00,
2013-03-29 06:45:00,61.1,55.6,30.11,SE,142,4.0,8.0,82,0.00,,,0.00,VWS V14.01,2013-03-29 11:45:00,
2013-03-29 06:50:00,61.1,55.9,30.11,SSE,150,5.0,5.0,83,0.00,,,0.00,VWS V14.01,2013-03-29 11:50:00,
2013-03-29 06:55:00,61.0,55.8,30.11,SSW,199,1.0,2.0,83,0.00,,,0.00,VWS V14.01,2013-03-29 11:55:00,
2013-03-29 07:00:00,61.0,55.8,30.12,SE,137,5.0,6.0,83,0.00,,,0.00,VWS V14.01,2013-03-29 12:00:00,
2013-03-29 07:05:00,61.0,55.8,30.12,South,181,9.0,10.0,83,0.00,,,0.00,VWS V14.01,2013-03-29 12:05:00,
2013-03-29 07:10:00,61.0,55.8,30.13,East,88,10.0,10.0,83,0.00,,,0.00,VWS V14.01,2013-03-29 12:10:00,
2013-03-29 07:14:00,61.0,55.8,30.13,SSE,147,4.0,6.0,83,0.00,,,0.00,VWS V14.01,2013-03-29 12:14:00,
2013-03-29 07:19:00,61.0,55.8,30.13,SE,126,0.0,1.0,83,0.00,,,0.00,VWS V14.01,2013-03-29 12:19:00,
2013-03-29 07:24:00,61.0,55.8,30.14,SSE,160,3.0,5.0,83,0.00,,,0.00,VWS V14.01,2013-03-29 12:24:00,
2013-03-29 07:29:00,61.0,55.8,30.14,SSW,213,5.0,7.0,83,0.00,,,0.00,VWS V14.01,2013-03-29 12:29:00,
2013-03-29 07:35:00,61.0,55.8,30.14,SSE,156,2.0,4.0,83,0.00,,,0.00,VWS V14.01,2013-03-29 12:35:00,
2013-03-29 07:39:00,61.0,55.8,30.14,SSE,151,3.0,3.0,83,0.00,,,0.00,VWS V14.01,2013-03-29 12:39:00,
2013-03-29 07:44:00,61.0,55.8,30.14,SSE,157,3.0,6.0,83,0.00,,,0.00,VWS V14.01,2013-03-29 12:44:00,
2013-03-29 07:49:00,61.0,55.8,30.14,SE,136,5.0,8.0,83,0.00,,,0.00,VWS V14.01,2013-03-29 12:49:00,
2013-03-29 07:54:00,61.0,55.8,30.14,SSE,148,4.0,7.0,83,0.00,,,0.00,VWS V14.01,2013-03-29 12:54:00,
2013-03-29 07:59:00,61.0,55.8,30.15,SSE,157,3.0,8.0,83,0.00,,,0.00,VWS V14.01,2013-03-29 12:59:00,
2013-03-29 08:04:00,61.0,55.8,30.15,SE,127,6.0,10.0,83,0.00,,,0.00,VWS V14.01,2013-03-29 13:04:00,
2013-03-29 08:09:00,61.0,55.8,30.15,SSE,149,7.0,10.0,83,0.00,,,0.00,VWS V14.01,2013-03-29 13:09:00,
2013-03-29 08:14:00,61.0,55.8,30.15,SE,137,8.0,8.0,83,0.00,,,0.00,VWS V14.01,2013-03-29 13:14:00,
2013-03-29 08:19:00,61.0,55.8,30.15,SSE,155,0.0,1.0,83,0.00,,,0.00,VWS V14.01,2013-03-29 13:19:00,
2013-03-29 08:24:00,61.0,55.8,30.15,SSE,155,7.0,7.0,83,0.00,,,0.00,VWS V14.01,2013-03-29 13:24:00,
2013-03-29 08:29:00,61.0,55.8,30.15,SSE,148,5.0,8.0,83,0.00,,,0.00,VWS V14.01,2013-03-29 13:29:00,
2013-03-29 08:34:00,60.4,55.9,30.16,SSE,160,3.0,8.0,85,0.00,,,0.00,VWS V14.01,2013-03-29 13:34:00,
2013-03-29 08:39:00,60.4,55.5,30.16,SE,142,5.0,7.0,84,0.00,,,0.00,VWS V14.01,2013-03-29 13:39:00,
2013-03-29 08:44:00,60.4,55.5,30.16,SSE,167,4.0,5.0,84,0.00,,,0.00,VWS V14.01,2013-03-29 13:44:00,
2013-03-29 08:49:00,60.5,55.7,30.16,ESE,111,3.0,5.0,84,0.00,,,0.00,VWS V14.01,2013-03-29 13:49:00,
2013-03-29 08:54:00,60.5,55.7,30.16,East,99,6.0,6.0,84,0.00,,,0.00,VWS V14.01,2013-03-29 13:54:00,
2013-03-29 08:59:00,60.7,55.8,30.16,ESE,112,4.0,6.0,84,0.00,,,0.00,VWS V14.01,2013-03-29 13:59:00,
2013-03-29 09:04:00,60.7,55.8,30.16,SSE,147,8.0,8.0,84,0.00,,,0.00,VWS V14.01,2013-03-29 14:04:00,
2013-03-29 09:09:00,60.9,56.0,30.16,South,186,2.0,6.0,84,0.00,,,0.00,VWS V14.01,2013-03-29 14:09:00,
2013-03-29 09:14:00,61.2,56.0,30.15,SE,141,9.0,9.0,83,0.00,,,0.00,VWS V14.01,2013-03-29 14:14:00,
2013-03-29 09:19:00,61.4,56.2,30.15,SSE,168,5.0,5.0,83,0.00,,,0.00,VWS V14.01,2013-03-29 14:19:00,
2013-03-29 09:24:00,61.6,56.1,30.15,South,173,10.0,10.0,82,0.00,,,0.00,VWS V14.01,2013-03-29 14:24:00,
2013-03-29 09:29:00,61.9,56.3,30.15,ESE,120,4.0,5.0,82,0.00,,,0.00,VWS V14.01,2013-03-29 14:29:00,
2013-03-29 09:34:00,62.2,56.3,30.15,SSE,161,9.0,13.0,81,0.00,,,0.00,VWS V14.01,2013-03-29 14:34:00,
2013-03-29 09:39:00,62.4,56.2,30.15,SW,220,9.0,9.0,80,0.00,,,0.00,VWS V14.01,2013-03-29 14:39:00,
2013-03-29 09:44:00,62.7,56.1,30.15,SSW,192,8.0,13.0,79,0.00,,,0.00,VWS V14.01,2013-03-29 14:44:00,
2013-03-29 09:49:00,62.8,56.2,30.15,South,169,6.0,13.0,79,0.00,,,0.00,VWS V14.01,2013-03-29 14:49:00,
2013-03-29 09:54:00,63.0,56.4,30.15,SSE,160,4.0,7.0,79,0.00,,,0.00,VWS V14.01,2013-03-29 14:54:00,
2013-03-29 09:59:00,63.5,56.9,30.15,SSE,166,12.0,12.0,79,0.00,,,0.00,VWS V14.01,2013-03-29 14:59:00,
2013-03-29 10:04:00,64.1,56.8,30.15,SSE,150,8.0,15.0,77,0.00,,,0.00,VWS V14.01,2013-03-29 15:04:00,
2013-03-29 10:09:00,64.2,56.5,30.15,South,190,10.0,14.0,76,0.00,,,0.00,VWS V14.01,2013-03-29 15:09:00,
2013-03-29 10:14:00,64.1,56.4,30.14,SSE,160,8.0,9.0,76,0.00,,,0.00,VWS V14.01,2013-03-29 15:14:00,
2013-03-29 10:19:00,64.1,56.4,30.14,South,170,7.0,9.0,76,0.00,,,0.00,VWS V14.01,2013-03-29 15:19:00,
2013-03-29 10:24:00,64.1,56.4,30.14,SSE,166,3.0,9.0,76,0.00,,,0.00,VWS V14.01,2013-03-29 15:24:00,
2013-03-29 10:29:00,64.1,56.4,30.15,SW,218,9.0,12.0,76,0.00,,,0.00,VWS V14.01,2013-03-29 15:29:00,
2013-03-29 10:34:00,64.1,56.4,30.15,SSE,168,12.0,13.0,76,0.00,,,0.00,VWS V14.01,2013-03-29 15:34:00,
2013-03-29 10:39:00,64.1,56.4,30.15,East,82,15.0,15.0,76,0.00,,,0.00,VWS V14.01,2013-03-29 15:39:00,
2013-03-29 10:44:00,64.1,56.4,30.15,SSE,150,8.0,12.0,76,0.00,,,0.00,VWS V14.01,2013-03-29 15:44:00,
2013-03-29 10:49:00,64.1,56.4,30.15,SSW,202,6.0,8.0,76,0.00,,,0.00,VWS V14.01,2013-03-29 15:49:00,
2013-03-29 10:54:00,64.1,56.4,30.15,South,177,10.0,13.0,76,0.00,,,0.00,VWS V14.01,2013-03-29 15:54:00,
2013-03-29 10:59:00,66.3,56.6,30.15,South,185,12.0,20.0,71,0.00,,,0.00,VWS V14.01,2013-03-29 15:59:00,
2013-03-29 11:04:00,66.9,57.2,30.15,South,178,13.0,16.0,71,0.00,,,0.00,VWS V14.01,2013-03-29 16:04:00,
2013-03-29 11:09:00,67.3,56.8,30.14,South,180,14.0,14.0,69,0.00,,,0.00,VWS V14.01,2013-03-29 16:09:00,
2013-03-29 11:14:00,67.2,57.1,30.14,SW,228,11.0,14.0,70,0.00,,,0.00,VWS V14.01,2013-03-29 16:14:00,
2013-03-29 11:19:00,67.2,56.7,30.14,SW,217,10.0,14.0,69,0.00,,,0.00,VWS V14.01,2013-03-29 16:19:00,
2013-03-29 11:24:00,67.5,56.6,30.14,SSE,167,6.0,6.0,68,0.00,,,0.00,VWS V14.01,2013-03-29 16:24:00,
2013-03-29 11:29:00,67.8,57.3,30.14,SSE,163,8.0,10.0,69,0.00,,,0.00,VWS V14.01,2013-03-29 16:29:00,
2013-03-29 11:34:00,67.9,57.0,30.14,South,180,12.0,12.0,68,0.00,,,0.00,VWS V14.01,2013-03-29 16:34:00,
2013-03-29 11:39:00,67.9,57.0,30.14,ESE,103,12.0,12.0,68,0.00,,,0.00,VWS V14.01,2013-03-29 16:39:00,
2013-03-29 11:44:00,68.0,56.7,30.14,SSW,211,5.0,7.0,67,0.00,,,0.00,VWS V14.01,2013-03-29 16:44:00,
2013-03-29 11:49:00,68.4,56.6,30.14,SE,137,6.0,8.0,66,0.00,,,0.00,VWS V14.01,2013-03-29 16:49:00,
2013-03-29 11:54:00,69.1,57.3,30.14,South,175,14.0,14.0,66,0.00,,,0.00,VWS V14.01,2013-03-29 16:54:00,
2013-03-29 11:59:00,69.4,56.7,30.13,South,169,4.0,5.0,64,0.00,,,0.00,VWS V14.01,2013-03-29 16:59:00,
2013-03-29 12:04:00,69.8,57.1,30.13,SSE,155,9.0,11.0,64,0.00,,,0.00,VWS V14.01,2013-03-29 17:04:00,
2013-03-29 12:09:00,70.3,57.1,30.13,SSE,168,10.0,13.0,63,0.00,,,0.00,VWS V14.01,2013-03-29 17:09:00,
2013-03-29 12:14:00,70.6,57.0,30.13,South,173,6.0,12.0,62,0.00,,,0.00,VWS V14.01,2013-03-29 17:14:00,
2013-03-29 12:19:00,70.9,57.2,30.13,East,96,8.0,8.0,62,0.00,,,0.00,VWS V14.01,2013-03-29 17:19:00,
2013-03-29 12:24:00,71.3,57.2,30.12,South,189,8.0,8.0,61,0.00,,,0.00,VWS V14.01,2013-03-29 17:24:00,
2013-03-29 12:29:00,71.7,57.1,30.13,South,169,15.0,16.0,60,0.00,,,0.00,VWS V14.01,2013-03-29 17:29:00,
2013-03-29 12:34:00,71.8,57.2,30.12,ESE,116,16.0,18.0,60,0.00,,,0.00,VWS V14.01,2013-03-29 17:34:00,
2013-03-29 12:39:00,71.9,57.3,30.12,South,175,6.0,7.0,60,0.00,,,0.00,VWS V14.01,2013-03-29 17:39:00,
2013-03-29 12:44:00,72.6,57.5,30.12,SSE,148,10.0,13.0,59,0.00,,,0.00,VWS V14.01,2013-03-29 17:44:00,
2013-03-29 12:49:00,72.5,56.9,30.11,SE,136,4.0,9.0,58,0.00,,,0.00,VWS V14.01,2013-03-29 17:49:00,
2013-03-29 12:54:00,73.0,57.4,30.11,South,190,4.0,10.0,58,0.00,,,0.00,VWS V14.01,2013-03-29 17:54:00,
2013-03-29 12:59:00,73.5,58.3,30.11,SSE,151,7.0,15.0,59,0.00,,,0.00,VWS V14.01,2013-03-29 17:59:00,
2013-03-29 13:04:00,73.9,58.2,30.11,SSE,155,8.0,8.0,58,0.00,,,0.00,VWS V14.01,2013-03-29 18:04:00,
2013-03-29 13:09:00,73.9,57.2,30.11,South,175,6.0,8.0,56,0.00,,,0.00,VWS V14.01,2013-03-29 18:09:00,
2013-03-29 13:14:00,73.8,58.1,30.10,SSE,152,5.0,5.0,58,0.00,,,0.00,VWS V14.01,2013-03-29 18:14:00,
2013-03-29 13:19:00,74.0,57.8,30.10,South,172,5.0,8.0,57,0.00,,,0.00,VWS V14.01,2013-03-29 18:19:00,
2013-03-29 13:24:00,74.2,57.5,30.10,ENE,60,3.0,4.0,56,0.00,,,0.00,VWS V14.01,2013-03-29 18:24:00,
2013-03-29 13:29:00,74.2,57.5,30.10,South,184,4.0,15.0,56,0.00,,,0.00,VWS V14.01,2013-03-29 18:29:00,
2013-03-29 13:34:00,74.3,58.1,30.09,SSE,152,5.0,8.0,57,0.00,,,0.00,VWS V14.01,2013-03-29 18:34:00,
2013-03-29 13:39:00,74.8,58.1,30.09,SW,219,11.0,18.0,56,0.00,,,0.00,VWS V14.01,2013-03-29 18:39:00,
2013-03-29 13:44:00,74.9,58.2,30.09,SW,234,6.0,16.0,56,0.00,,,0.00,VWS V14.01,2013-03-29 18:44:00,
2013-03-29 13:49:00,74.8,57.6,30.09,SSE,152,10.0,16.0,55,0.00,,,0.00,VWS V14.01,2013-03-29 18:49:00,
2013-03-29 13:54:00,75.1,58.3,30.08,South,188,13.0,14.0,56,0.00,,,0.00,VWS V14.01,2013-03-29 18:54:00,
2013-03-29 13:59:00,75.7,58.4,30.08,South,188,11.0,14.0,55,0.00,,,0.00,VWS V14.01,2013-03-29 18:59:00,
2013-03-29 14:04:00,75.9,58.1,30.08,SSE,152,10.0,16.0,54,0.00,,,0.00,VWS V14.01,2013-03-29 19:04:00,
2013-03-29 14:09:00,75.8,58.0,30.07,SSE,162,4.0,15.0,54,0.00,,,0.00,VWS V14.01,2013-03-29 19:09:00,
2013-03-29 14:14:00,75.8,58.0,30.07,ESE,123,11.0,17.0,54,0.00,,,0.00,VWS V14.01,2013-03-29 19:14:00,
2013-03-29 14:19:00,76.2,57.8,30.07,ESE,121,7.0,17.0,53,0.00,,,0.00,VWS V14.01,2013-03-29 19:19:00,
2013-03-29 14:24:00,76.0,57.7,30.07,South,181,15.0,18.0,53,0.00,,,0.00,VWS V14.01,2013-03-29 19:24:00,
2013-03-29 14:29:00,76.2,58.4,30.06,WSW,241,0.0,14.0,54,0.00,,,0.00,VWS V14.01,2013-03-29 19:29:00,
2013-03-29 14:34:00,76.7,57.8,30.06,SSW,194,7.0,16.0,52,0.00,,,0.00,VWS V14.01,2013-03-29 19:34:00,
2013-03-29 14:39:00,76.9,58.0,30.06,South,179,7.0,14.0,52,0.00,,,0.00,VWS V14.01,2013-03-29 19:39:00,
2013-03-29 14:44:00,77.1,57.6,30.05,ESE,123,5.0,15.0,51,0.00,,,0.00,VWS V14.01,2013-03-29 19:44:00,
2013-03-29 14:49:00,77.3,58.3,30.05,ESE,123,8.0,16.0,52,0.00,,,0.00,VWS V14.01,2013-03-29 19:49:00,
2013-03-29 14:54:00,77.5,57.4,30.05,South,175,13.0,20.0,50,0.00,,,0.00,VWS V14.01,2013-03-29 19:54:00,
2013-03-29 14:59:00,77.0,57.5,30.05,SSE,151,10.0,18.0,51,0.00,,,0.00,VWS V14.01,2013-03-29 19:59:00,
2013-03-29 15:04:00,77.0,58.0,30.05,SSW,195,7.0,15.0,52,0.00,,,0.00,VWS V14.01,2013-03-29 20:04:00,
2013-03-29 15:09:00,76.7,57.8,30.05,SSE,160,19.0,19.0,52,0.00,,,0.00,VWS V14.01,2013-03-29 20:09:00,
2013-03-29 15:14:00,76.7,57.8,30.04,SSE,155,9.0,19.0,52,0.00,,,0.00,VWS V14.01,2013-03-29 20:14:00,
2013-03-29 15:19:00,77.0,57.5,30.04,South,186,11.0,18.0,51,0.00,,,0.00,VWS V14.01,2013-03-29 20:19:00,
2013-03-29 15:24:00,76.9,58.0,30.04,SSE,157,9.0,17.0,52,0.00,,,0.00,VWS V14.01,2013-03-29 20:24:00,
2013-03-29 15:29:00,77.0,58.0,30.04,SE,143,5.0,17.0,52,0.00,,,0.00,VWS V14.01,2013-03-29 20:29:00,
2013-03-29 15:34:00,77.3,57.8,30.03,SSE,148,8.0,14.0,51,0.00,,,0.00,VWS V14.01,2013-03-29 20:34:00,
2013-03-29 15:39:00,77.5,57.4,30.04,SSW,198,4.0,24.0,50,0.00,,,0.00,VWS V14.01,2013-03-29 20:39:00,
2013-03-29 15:44:00,77.5,57.4,30.04,ESE,121,7.0,16.0,50,0.00,,,0.00,VWS V14.01,2013-03-29 20:44:00,
2013-03-29 15:49:00,77.5,57.4,30.03,ENE,69,7.0,17.0,50,0.00,,,0.00,VWS V14.01,2013-03-29 20:49:00,
2013-03-29 15:54:00,77.5,57.4,30.03,South,173,10.0,21.0,50,0.00,,,0.00,VWS V14.01,2013-03-29 20:54:00,
2013-03-29 15:59:00,77.5,57.4,30.03,SSE,150,11.0,18.0,50,0.00,,,0.00,VWS V14.01,2013-03-29 20:59:00,
2013-03-29 16:04:00,77.5,57.4,30.02,South,184,8.0,17.0,50,0.00,,,0.00,VWS V14.01,2013-03-29 21:04:00,
2013-03-29 16:09:00,77.5,57.4,30.02,SE,137,15.0,17.0,50,0.00,,,0.00,VWS V14.01,2013-03-29 21:09:00,
2013-03-29 16:14:00,77.5,57.4,30.02,South,171,10.0,21.0,50,0.00,,,0.00,VWS V14.01,2013-03-29 21:14:00,
2013-03-29 16:19:00,77.5,57.4,30.02,South,186,12.0,15.0,50,0.00,,,0.00,VWS V14.01,2013-03-29 21:19:00,
2013-03-29 16:24:00,75.3,56.5,30.02,ESE,105,8.0,23.0,52,0.00,,,0.00,VWS V14.01,2013-03-29 21:24:00,
2013-03-29 16:29:00,75.2,56.9,30.02,SSE,148,4.0,17.0,53,0.00,,,0.00,VWS V14.01,2013-03-29 21:29:00,
2013-03-29 16:34:00,75.2,56.9,30.02,SSW,199,8.0,18.0,53,0.00,,,0.00,VWS V14.01,2013-03-29 21:34:00,
2013-03-29 16:39:00,75.3,57.0,30.03,SSE,155,9.0,15.0,53,0.00,,,0.00,VWS V14.01,2013-03-29 21:39:00,
2013-03-29 16:44:00,75.3,57.0,30.03,SSE,157,5.0,18.0,53,0.00,,,0.00,VWS V14.01,2013-03-29 21:44:00,
2013-03-29 16:49:00,75.2,57.4,30.03,ESE,120,8.0,18.0,54,0.00,,,0.00,VWS V14.01,2013-03-29 21:49:00,
2013-03-29 16:54:00,75.0,57.2,30.03,SE,127,5.0,16.0,54,0.00,,,0.00,VWS V14.01,2013-03-29 21:54:00,
2013-03-29 16:59:00,74.8,57.6,30.03,SE,144,4.0,15.0,55,0.00,,,0.00,VWS V14.01,2013-03-29 21:59:00,
2013-03-29 17:04:00,74.8,57.1,30.04,South,173,3.0,15.0,54,0.00,,,0.00,VWS V14.01,2013-03-29 22:04:00,
2013-03-29 17:09:00,74.8,57.1,30.04,SSE,148,5.0,15.0,54,0.00,,,0.00,VWS V14.01,2013-03-29 22:09:00,
2013-03-29 17:14:00,74.8,57.1,30.03,SE,136,4.0,15.0,54,0.00,,,0.00,VWS V14.01,2013-03-29 22:14:00,
2013-03-29 17:19:00,74.8,57.1,30.03,East,80,7.0,16.0,54,0.00,,,0.00,VWS V14.01,2013-03-29 22:19:00,
2013-03-29 17:24:00,74.8,57.1,30.03,SSE,153,6.0,16.0,54,0.00,,,0.00,VWS V14.01,2013-03-29 22:24:00,
2013-03-29 17:29:00,74.8,57.1,30.03,East,97,10.0,17.0,54,0.00,,,0.00,VWS V14.01,2013-03-29 22:29:00,
2013-03-29 17:34:00,74.8,57.1,30.03,SE,133,6.0,16.0,54,0.00,,,0.00,VWS V14.01,2013-03-29 22:34:00,
2013-03-29 17:39:00,74.8,57.1,30.03,SSE,160,4.0,14.0,54,0.00,,,0.00,VWS V14.01,2013-03-29 22:39:00,
2013-03-29 17:44:00,73.3,55.7,30.03,ESE,113,13.0,13.0,54,0.00,,,0.00,VWS V14.01,2013-03-29 22:44:00,
2013-03-29 17:49:00,73.4,57.7,30.03,SE,139,13.0,14.0,58,0.00,,,0.00,VWS V14.01,2013-03-29 22:49:00,
2013-03-29 17:54:00,73.4,57.7,30.03,SSE,164,3.0,14.0,58,0.00,,,0.00,VWS V14.01,2013-03-29 22:54:00,
2013-03-29 17:59:00,73.3,57.7,30.03,SSE,155,8.0,13.0,58,0.00,,,0.00,VWS V14.01,2013-03-29 22:59:00,
2013-03-29 18:04:00,73.2,57.5,30.02,ESE,109,13.0,13.0,58,0.00,,,0.00,VWS V14.01,2013-03-29 23:04:00,
2013-03-29 18:09:00,73.0,57.4,30.02,SSW,205,7.0,20.0,58,0.00,,,0.00,VWS V14.01,2013-03-29 23:09:00,
2013-03-29 18:14:00,73.0,57.4,30.02,SSE,149,10.0,13.0,58,0.00,,,0.00,VWS V14.01,2013-03-29 23:14:00,
2013-03-29 18:19:00,73.1,57.5,30.02,SSE,162,11.0,15.0,58,0.00,,,0.00,VWS V14.01,2013-03-29 23:19:00,
2013-03-29 18:24:00,73.1,57.5,30.02,ESE,107,13.0,15.0,58,0.00,,,0.00,VWS V14.01,2013-03-29 23:24:00,
2013-03-29 18:29:00,73.0,57.4,30.02,ESE,108,4.0,13.0,58,0.00,,,0.00,VWS V14.01,2013-03-29 23:29:00,
2013-03-29 18:34:00,72.9,57.8,30.01,SE,130,9.0,16.0,59,0.00,,,0.00,VWS V14.01,2013-03-29 23:34:00,
2013-03-29 18:39:00,72.8,57.7,30.01,SE,142,11.0,17.0,59,0.00,,,0.00,VWS V14.01,2013-03-29 23:39:00,
2013-03-29 18:44:00,72.7,57.6,30.01,ESE,113,1.0,18.0,59,0.00,,,0.00,VWS V14.01,2013-03-29 23:44:00,
2013-03-29 18:49:00,72.7,57.6,30.01,ESE,111,10.0,13.0,59,0.00,,,0.00,VWS V14.01,2013-03-29 23:49:00,
2013-03-29 18:54:00,72.7,57.6,30.01,SSE,152,5.0,14.0,59,0.00,,,0.00,VWS V14.01,2013-03-29 23:54:00,
2013-03-29 18:59:00,72.6,57.9,30.02,SE,143,4.0,11.0,60,0.00,,,0.00,VWS V14.01,2013-03-29 23:59:00,
2013-03-29 19:04:00,72.5,57.8,30.02,ESE,107,3.0,12.0,60,0.00,,,0.00,VWS V14.01,2013-03-30 00:04:00,
2013-03-29 19:09:00,72.4,57.8,30.02,East,100,2.0,13.0,60,0.00,,,0.00,VWS V14.01,2013-03-30 00:09:00,
2013-03-29 19:14:00,72.2,57.6,30.03,SE,135,5.0,16.0,60,0.00,,,0.00,VWS V14.01,2013-03-30 00:14:00,
2013-03-29 19:19:00,72.2,58.0,30.03,ESE,112,3.0,8.0,61,0.00,,,0.00,VWS V14.01,2013-03-30 00:19:00,
2013-03-29 19:24:00,72.1,57.9,30.03,ESE,116,15.0,15.0,61,0.00,,,0.00,VWS V14.01,2013-03-30 00:24:00,
2013-03-29 19:29:00,71.9,57.7,30.03,South,173,3.0,13.0,61,0.00,,,0.00,VWS V14.01,2013-03-30 00:29:00,
2013-03-29 19:34:00,71.9,57.7,30.03,South,186,1.0,9.0,61,0.00,,,0.00,VWS V14.01,2013-03-30 00:34:00,
2013-03-29 19:39:00,71.8,57.6,30.03,SE,135,5.0,11.0,61,0.00,,,0.00,VWS V14.01,2013-03-30 00:39:00,
2013-03-29 19:44:00,71.7,57.5,30.04,SE,130,5.0,9.0,61,0.00,,,0.00,VWS V14.01,2013-03-30 00:44:00,
2013-03-29 19:49:00,71.6,57.9,30.03,ENE,76,3.0,10.0,62,0.00,,,0.00,VWS V14.01,2013-03-30 00:49:00,
2013-03-29 19:54:00,71.5,57.8,30.03,SSE,151,5.0,10.0,62,0.00,,,0.00,VWS V14.01,2013-03-30 00:54:00,
2013-03-29 19:59:00,71.5,57.8,30.03,SE,133,9.0,12.0,62,0.00,,,0.00,VWS V14.01,2013-03-30 00:59:00,
2013-03-29 20:04:00,71.3,57.6,30.03,SSE,152,3.0,10.0,62,0.00,,,0.00,VWS V14.01,2013-03-30 01:04:00,
2013-03-29 20:09:00,71.2,58.0,30.03,SSE,151,4.0,10.0,63,0.00,,,0.00,VWS V14.01,2013-03-30 01:09:00,
2013-03-29 20:14:00,71.1,57.9,30.03,ESE,107,5.0,12.0,63,0.00,,,0.00,VWS V14.01,2013-03-30 01:14:00,
2013-03-29 20:19:00,71.0,57.8,30.03,ESE,117,4.0,12.0,63,0.00,,,0.00,VWS V14.01,2013-03-30 01:19:00,
2013-03-29 20:24:00,70.9,57.7,30.03,ESE,106,8.0,12.0,63,0.00,,,0.00,VWS V14.01,2013-03-30 01:24:00,
2013-03-29 20:29:00,70.7,57.5,30.03,ESE,111,8.0,10.0,63,0.00,,,0.00,VWS V14.01,2013-03-30 01:29:00,
2013-03-29 20:34:00,70.6,57.4,30.03,ESE,103,7.0,13.0,63,0.00,,,0.00,VWS V14.01,2013-03-30 01:34:00,
2013-03-29 20:39:00,70.6,57.4,30.03,SE,146,5.0,11.0,63,0.00,,,0.00,VWS V14.01,2013-03-30 01:39:00,
2013-03-29 20:44:00,70.5,57.3,30.03,ESE,105,4.0,10.0,63,0.00,,,0.00,VWS V14.01,2013-03-30 01:44:00,
2013-03-29 20:49:00,70.4,57.2,30.03,East,101,11.0,18.0,63,0.00,,,0.00,VWS V14.01,2013-03-30 01:49:00,
2013-03-29 20:54:00,70.3,57.1,30.03,ESE,121,5.0,13.0,63,0.00,,,0.00,VWS V14.01,2013-03-30 01:54:00,
2013-03-29 20:59:00,70.1,57.4,30.03,SSE,151,5.0,17.0,64,0.00,,,0.00,VWS V14.01,2013-03-30 01:59:00,
2013-03-29 21:04:00,70.0,57.3,30.03,SE,140,6.0,15.0,64,0.00,,,0.00,VWS V14.01,2013-03-30 02:04:00,
2013-03-29 21:09:00,70.0,57.7,30.04,SE,139,11.0,20.0,65,0.00,,,0.00,VWS V14.01,2013-03-30 02:09:00,
2013-03-29 21:14:00,69.9,57.6,30.04,SE,124,7.0,15.0,65,0.00,,,0.00,VWS V14.01,2013-03-30 02:14:00,
2013-03-29 21:19:00,69.9,57.6,30.04,SSE,161,4.0,16.0,65,0.00,,,0.00,VWS V14.01,2013-03-30 02:19:00,
2013-03-29 21:24:00,69.8,57.5,30.05,ESE,121,7.0,13.0,65,0.00,,,0.00,VWS V14.01,2013-03-30 02:24:00,
2013-03-29 21:29:00,69.7,57.8,30.05,SE,138,6.0,12.0,66,0.00,,,0.00,VWS V14.01,2013-03-30 02:29:00,
2013-03-29 21:34:00,69.7,57.8,30.05,SE,142,12.0,13.0,66,0.00,,,0.00,VWS V14.01,2013-03-30 02:34:00,
2013-03-29 21:39:00,69.6,57.8,30.05,East,94,9.0,14.0,66,0.00,,,0.00,VWS V14.01,2013-03-30 02:39:00,
2013-03-29 21:44:00,69.5,57.7,30.05,SSE,149,7.0,10.0,66,0.00,,,0.00,VWS V14.01,2013-03-30 02:44:00,
2013-03-29 21:49:00,69.4,57.6,30.05,SE,134,6.0,10.0,66,0.00,,,0.00,VWS V14.01,2013-03-30 02:49:00,
2013-03-29 21:54:00,69.4,58.0,30.04,SE,124,2.0,15.0,67,0.00,,,0.00,VWS V14.01,2013-03-30 02:54:00,
2013-03-29 21:59:00,69.3,57.9,30.04,ESE,113,8.0,13.0,67,0.00,,,0.00,VWS V14.01,2013-03-30 02:59:00,
2013-03-29 22:04:00,69.2,57.8,30.04,SE,127,4.0,14.0,67,0.00,,,0.00,VWS V14.01,2013-03-30 03:04:00,
2013-03-29 22:09:00,69.2,58.2,30.04,East,83,3.0,11.0,68,0.00,,,0.00,VWS V14.01,2013-03-30 03:09:00,
2013-03-29 22:14:00,69.1,58.1,30.04,East,90,8.0,11.0,68,0.00,,,0.00,VWS V14.01,2013-03-30 03:14:00,
2013-03-29 22:19:00,69.1,58.1,30.03,SE,142,6.0,13.0,68,0.00,,,0.00,VWS V14.01,2013-03-30 03:19:00,
2013-03-29 22:24:00,69.1,58.1,30.03,ESE,120,5.0,15.0,68,0.00,,,0.00,VWS V14.01,2013-03-30 03:24:00,
2013-03-29 22:29:00,69.0,58.0,30.03,ESE,115,11.0,14.0,68,0.00,,,0.00,VWS V14.01,2013-03-30 03:29:00,
2013-03-29 22:34:00,68.9,57.9,30.02,SE,146,4.0,13.0,68,0.00,,,0.00,VWS V14.01,2013-03-30 03:34:00,
2013-03-29 22:39:00,68.9,57.9,30.02,ESE,121,3.0,13.0,68,0.00,,,0.00,VWS V14.01,2013-03-30 03:39:00,
2013-03-29 22:44:00,68.9,58.3,30.02,SSE,157,6.0,17.0,69,0.00,,,0.00,VWS V14.01,2013-03-30 03:44:00,
2013-03-29 22:49:00,68.8,58.6,30.00,ESE,113,12.0,13.0,70,0.00,,,0.00,VWS V14.01,2013-03-30 03:49:00,
2013-03-29 22:54:00,68.6,58.4,30.00,ESE,109,10.0,16.0,70,0.00,,,0.00,VWS V14.01,2013-03-30 03:54:00,
2013-03-29 22:59:00,68.4,58.6,30.00,East,98,3.0,15.0,71,0.00,,,0.00,VWS V14.01,2013-03-30 03:59:00,
2013-03-29 23:00:00,68.4,58.6,30.00,East,85,11.0,11.0,71,0.00,,,0.00,VWS V14.01,2013-03-30 04:00:00,
2013-03-29 23:05:00,68.2,58.0,30.00,ESE,111,7.0,11.0,70,0.00,,,0.00,VWS V14.01,2013-03-30 04:05:00,
2013-03-29 23:10:00,68.2,58.0,30.00,ESE,111,10.0,10.0,70,0.00,,,0.00,VWS V14.01,2013-03-30 04:10:00,
2013-03-29 23:15:00,68.1,58.3,30.01,East,92,6.0,11.0,71,0.00,,,0.00,VWS V14.01,2013-03-30 04:15:00,
2013-03-29 23:20:00,68.1,58.3,30.00,East,92,11.0,11.0,71,0.00,,,0.00,VWS V14.01,2013-03-30 04:20:00,
2013-03-29 23:25:00,68.0,58.3,30.00,ENE,65,10.0,13.0,71,0.00,,,0.00,VWS V14.01,2013-03-30 04:25:00,
2013-03-29 23:30:00,67.9,58.2,29.99,SSE,148,14.0,14.0,71,0.00,,,0.00,VWS V14.01,2013-03-30 04:30:00,
2013-03-29 23:35:00,67.9,58.2,29.99,ESE,119,12.0,12.0,71,0.00,,,0.00,VWS V14.01,2013-03-30 04:35:00,
2013-03-29 23:40:00,67.8,58.1,29.98,ESE,110,8.0,15.0,71,0.00,,,0.00,VWS V14.01,2013-03-30 04:40:00,
2013-03-29 23:45:00,67.8,58.1,29.98,ESE,104,14.0,14.0,71,0.00,,,0.00,VWS V14.01,2013-03-30 04:45:00,
2013-03-29 23:50:00,67.8,58.1,29.98,SE,133,12.0,14.0,71,0.00,,,0.00,VWS V14.01,2013-03-30 04:50:00,
2013-03-29 23:55:00,67.8,58.1,29.99,South,180,5.0,12.0,71,0.00,,,0.00,VWS V14.01,2013-03-30 04:55:00,